Location: Pedholt
(56.0260°N, 10.2097°E)
Time: 21:00:28
(UTC+00:00)

Tiros 1 - Pass Details

Date: 02 August 2021
Orbit: 630 x 663 km, 48.4° (Epoch: 19 September)

Event Time Altitude Azimuth Distance (km) Brightness Sun altitude
Rises 21:53:35 0° 269° (W) 2,970 10.8 -13.9°
Reaches altitude 10° 21:56:29 10° 252° (WSW) 2,050 9.8 -14.1°
Maximum altitude 21:59:46 19° 207° (SSW) 1,534 8.7 -14.3°
Enters shadow 22:00:40 18° 193° (SSW) 1,575 8.6 -14.3°
Drops below altitude 10° 22:03:02 10° 163° (SSE) 2,029 - -14.4°
Sets 22:05:54 0° 146° (SE) 2,929 - -14.6°
